Time,TemperatureF,DewpointF,PressureIn,WindDirection,WindDirectionDegrees,WindSpeedMPH,WindSpeedGustMPH,Humidity,HourlyPrecipIn,Conditions,Clouds,dailyrainin,SoftwareType,DateUTC
2013-04-21 00:01:00,37.8,33.7,30.31,NNW,329,0.0,0.0,85,0.00,CLR,,0.00,WeatherDisplay:10.37,2013-04-21 04:01:00,
2013-04-21 00:06:00,37.7,33.3,30.31,NNW,329,0.0,0.0,84,0.00,CLR,,0.00,WeatherDisplay:10.37,2013-04-21 04:06:00,
2013-04-21 00:11:00,37.7,33.6,30.31,NNW,329,0.0,0.0,85,0.00,CLR,,0.00,WeatherDisplay:10.37,2013-04-21 04:11:00,
2013-04-21 00:16:00,37.6,33.5,30.31,NNW,329,0.0,0.0,85,0.00,CLR,,0.00,WeatherDisplay:10.37,2013-04-21 04:16:00,
2013-04-21 00:21:00,37.6,33.8,30.31,NNW,329,0.0,0.0,86,0.00,CLR,,0.00,WeatherDisplay:10.37,2013-04-21 04:21:00,
2013-04-21 00:26:00,37.4,33.3,30.31,NNW,329,0.0,0.0,85,0.00,CLR,,0.00,WeatherDisplay:10.37,2013-04-21 04:26:00,
2013-04-21 00:31:00,37.4,33.9,30.31,NNW,329,0.0,0.0,87,0.00,CLR,,0.00,WeatherDisplay:10.37,2013-04-21 04:31:00,
2013-04-21 00:36:00,37.3,33.2,30.31,NNW,329,0.0,0.0,85,0.00,CLR,,0.00,WeatherDisplay:10.37,2013-04-21 04:36:00,
2013-04-21 00:41:00,37.3,33.5,30.31,NNW,329,0.0,0.0,86,0.00,CLR,,0.00,WeatherDisplay:10.37,2013-04-21 04:41:00,
2013-04-21 00:46:00,37.4,33.6,30.31,NNW,329,0.0,0.0,86,0.00,CLR,,0.00,WeatherDisplay:10.37,2013-04-21 04:46:00,
2013-04-21 00:51:00,37.3,33.2,30.31,NNW,329,0.0,0.0,85,0.00,CLR,,0.00,WeatherDisplay:10.37,2013-04-21 04:51:00,
2013-04-21 00:56:00,37.2,33.1,30.31,NNW,329,0.0,0.0,85,0.00,CLR,,0.00,WeatherDisplay:10.37,2013-04-21 04:56:00,
2013-04-21 01:01:00,37.1,33.0,30.31,NNW,329,0.0,0.0,85,0.00,CLR,,0.00,WeatherDisplay:10.37,2013-04-21 05:01:00,
2013-04-21 01:06:00,36.9,32.8,30.32,NNW,329,0.0,0.0,85,0.00,CLR,,0.00,WeatherDisplay:10.37,2013-04-21 05:06:00,
2013-04-21 01:11:00,37.0,33.2,30.32,NNW,329,0.0,0.0,86,0.00,CLR,,0.00,WeatherDisplay:10.37,2013-04-21 05:11:00,
2013-04-21 01:16:00,36.9,32.8,30.32,NNW,329,0.1,1.1,85,0.00,CLR,,0.00,WeatherDisplay:10.37,2013-04-21 05:16:00,
2013-04-21 01:21:00,36.9,33.4,30.32,NNW,329,0.0,0.0,87,0.00,CLR,,0.00,WeatherDisplay:10.37,2013-04-21 05:21:00,
2013-04-21 01:26:00,36.9,33.4,30.32,NNW,329,0.0,0.0,87,0.00,CLR,,0.00,WeatherDisplay:10.37,2013-04-21 05:26:00,
2013-04-21 01:31:00,36.9,33.4,30.32,NNW,329,0.0,0.0,87,0.00,CLR,,0.00,WeatherDisplay:10.37,2013-04-21 05:31:00,
2013-04-21 01:36:00,36.8,33.3,30.32,NNW,329,0.0,0.0,87,0.00,CLR,,0.00,WeatherDisplay:10.37,2013-04-21 05:36:00,
2013-04-21 01:41:00,36.8,33.0,30.32,NNW,329,0.0,0.0,86,0.00,CLR,,0.00,WeatherDisplay:10.37,2013-04-21 05:41:00,
2013-04-21 01:46:00,36.7,33.2,30.32,NNW,329,0.0,0.0,87,0.00,CLR,,0.00,WeatherDisplay:10.37,2013-04-21 05:46:00,
2013-04-21 01:51:00,36.6,33.1,30.32,NNW,329,0.0,0.0,87,0.00,CLR,,0.00,WeatherDisplay:10.37,2013-04-21 05:51:00,
2013-04-21 01:56:00,36.6,33.4,30.32,NNW,329,0.0,0.0,88,0.00,CLR,,0.00,WeatherDisplay:10.37,2013-04-21 05:56:00,
2013-04-21 02:01:00,36.5,33.0,30.32,NNW,329,0.0,0.0,87,0.00,CLR,,0.00,WeatherDisplay:10.37,2013-04-21 06:01:00,
2013-04-21 02:06:00,36.5,33.0,30.32,NNW,329,0.0,0.0,87,0.00,CLR,,0.00,WeatherDisplay:10.37,2013-04-21 06:06:00,
2013-04-21 02:11:00,36.4,32.9,30.32,NNW,329,0.0,0.0,87,0.00,CLR,,0.00,WeatherDisplay:10.37,2013-04-21 06:11:00,
2013-04-21 02:16:00,36.2,32.1,30.32,NNW,329,0.0,0.0,85,0.00,CLR,,0.00,WeatherDisplay:10.37,2013-04-21 06:16:00,
2013-04-21 02:21:00,36.4,33.2,30.32,NNW,329,0.0,0.0,88,0.00,CLR,,0.00,WeatherDisplay:10.37,2013-04-21 06:21:00,
2013-04-21 02:26:00,36.2,32.4,30.31,NNW,329,0.0,0.0,86,0.00,CLR,,0.00,WeatherDisplay:10.37,2013-04-21 06:26:00,
2013-04-21 02:31:00,36.2,32.7,30.32,NNW,329,0.0,0.0,87,0.00,CLR,,0.00,WeatherDisplay:10.37,2013-04-21 06:31:00,
2013-04-21 02:36:00,36.2,32.7,30.31,NNW,329,0.0,0.0,87,0.00,CLR,,0.00,WeatherDisplay:10.37,2013-04-21 06:36:00,
2013-04-21 02:42:00,36.2,32.7,30.31,NNW,329,0.0,0.0,87,0.00,CLR,,0.00,WeatherDisplay:10.37,2013-04-21 06:42:00,
2013-04-21 02:47:00,36.1,32.9,30.31,NNW,329,0.0,0.0,88,0.00,CLR,,0.00,WeatherDisplay:10.37,2013-04-21 06:47:00,
2013-04-21 02:52:00,36.1,33.2,30.31,NNW,329,0.0,0.0,89,0.00,CLR,,0.00,WeatherDisplay:10.37,2013-04-21 06:52:00,
2013-04-21 02:57:00,35.9,32.7,30.31,NNW,329,0.0,0.0,88,0.00,CLR,,0.00,WeatherDisplay:10.37,2013-04-21 06:57:00,
2013-04-21 03:02:00,35.7,31.9,30.31,NNW,329,0.0,0.0,86,0.00,CLR,,0.00,WeatherDisplay:10.37,2013-04-21 07:02:00,
2013-04-21 03:07:00,35.7,32.5,30.32,NNW,329,0.0,0.0,88,0.00,CLR,,0.00,WeatherDisplay:10.37,2013-04-21 07:07:00,
2013-04-21 03:12:00,35.7,32.5,30.32,NNW,329,0.0,0.0,88,0.00,CLR,,0.00,WeatherDisplay:10.37,2013-04-21 07:12:00,
2013-04-21 03:17:00,35.8,32.9,30.32,NNW,329,0.0,0.0,89,0.00,CLR,,0.00,WeatherDisplay:10.37,2013-04-21 07:17:00,
2013-04-21 03:22:00,35.7,32.8,30.32,NNW,329,0.0,0.0,89,0.00,CLR,,0.00,WeatherDisplay:10.37,2013-04-21 07:22:00,
2013-04-21 03:27:00,35.7,32.8,30.32,NNW,329,0.0,0.0,89,0.00,CLR,,0.00,WeatherDisplay:10.37,2013-04-21 07:27:00,
2013-04-21 03:32:00,35.6,32.1,30.31,NNW,329,0.0,0.0,87,0.00,CLR,,0.00,WeatherDisplay:10.37,2013-04-21 07:32:00,
2013-04-21 03:37:00,35.6,32.7,30.32,NNW,329,0.0,0.0,89,0.00,CLR,,0.00,WeatherDisplay:10.37,2013-04-21 07:37:00,
2013-04-21 03:42:00,35.6,32.7,30.32,NNW,329,0.0,0.0,89,0.00,CLR,,0.00,WeatherDisplay:10.37,2013-04-21 07:42:00,
2013-04-21 03:47:00,35.6,32.7,30.32,NNW,329,0.0,0.0,89,0.00,CLR,,0.00,WeatherDisplay:10.37,2013-04-21 07:47:00,
2013-04-21 03:52:00,35.5,32.6,30.32,NNW,329,0.0,0.0,89,0.00,CLR,,0.00,WeatherDisplay:10.37,2013-04-21 07:52:00,
2013-04-21 03:57:00,35.5,32.6,30.32,NNW,329,0.0,0.0,89,0.00,CLR,,0.00,WeatherDisplay:10.37,2013-04-21 07:57:00,
2013-04-21 04:02:00,35.3,32.1,30.32,NNW,329,0.0,0.0,88,0.00,CLR,,0.00,WeatherDisplay:10.37,2013-04-21 08:02:00,
2013-04-21 04:07:00,35.2,32.0,30.32,NNW,329,0.0,0.0,88,0.00,CLR,,0.00,WeatherDisplay:10.37,2013-04-21 08:07:00,
2013-04-21 04:12:00,35.3,32.4,30.32,NNW,329,0.0,0.0,89,0.00,CLR,,0.00,WeatherDisplay:10.37,2013-04-21 08:12:00,
2013-04-21 04:17:00,35.3,32.7,30.32,NNW,329,0.0,0.0,90,0.00,CLR,,0.00,WeatherDisplay:10.37,2013-04-21 08:17:00,
2013-04-21 04:22:00,35.3,32.4,30.32,NNW,329,0.0,0.0,89,0.00,CLR,,0.00,WeatherDisplay:10.37,2013-04-21 08:22:00,
2013-04-21 04:27:00,35.3,32.4,30.32,NNW,329,0.0,0.0,89,0.00,CLR,,0.00,WeatherDisplay:10.37,2013-04-21 08:27:00,
2013-04-21 04:32:00,35.4,32.5,30.32,NNW,329,0.0,0.0,89,0.00,CLR,,0.00,WeatherDisplay:10.37,2013-04-21 08:32:00,
2013-04-21 04:37:00,35.3,32.4,30.33,NNW,329,0.0,0.0,89,0.00,CLR,,0.00,WeatherDisplay:10.37,2013-04-21 08:37:00,
2013-04-21 04:42:00,35.3,32.7,30.33,NNW,329,0.0,0.0,90,0.00,CLR,,0.00,WeatherDisplay:10.37,2013-04-21 08:42:00,
2013-04-21 04:47:00,35.2,32.6,30.33,NNW,329,0.0,1.1,90,0.00,CLR,,0.00,WeatherDisplay:10.37,2013-04-21 08:47:00,
2013-04-21 04:52:00,35.1,32.2,30.33,NNW,329,0.0,0.0,89,0.00,CLR,,0.00,WeatherDisplay:10.37,2013-04-21 08:52:00,
2013-04-21 04:57:00,35.2,32.3,30.33,NNW,329,0.0,0.0,89,0.00,CLR,,0.00,WeatherDisplay:10.37,2013-04-21 08:57:00,
2013-04-21 05:02:00,35.1,32.2,30.33,NNW,329,0.0,0.0,89,0.00,CLR,,0.00,WeatherDisplay:10.37,2013-04-21 09:02:00,
2013-04-21 05:07:00,34.9,32.0,30.33,NNW,329,0.0,0.0,89,0.00,CLR,,0.00,WeatherDisplay:10.37,2013-04-21 09:07:00,
2013-04-21 05:12:00,34.7,31.8,30.33,NNW,329,0.0,0.0,89,0.00,CLR,,0.00,WeatherDisplay:10.37,2013-04-21 09:12:00,
2013-04-21 05:17:00,34.6,31.7,30.33,NNW,329,0.0,0.0,89,0.00,CLR,,0.00,WeatherDisplay:10.37,2013-04-21 09:17:00,
2013-04-21 05:22:00,34.6,32.0,30.33,NNW,329,0.0,0.0,90,0.00,CLR,,0.00,WeatherDisplay:10.37,2013-04-21 09:22:00,
2013-04-21 05:27:00,34.5,31.6,30.33,NNW,329,0.0,0.0,89,0.00,CLR,,0.00,WeatherDisplay:10.37,2013-04-21 09:27:00,
2013-04-21 05:32:00,34.4,31.5,30.33,NNW,329,0.0,0.0,89,0.00,CLR,,0.00,WeatherDisplay:10.37,2013-04-21 09:32:00,
2013-04-21 05:37:00,34.3,31.1,30.34,NNW,329,0.0,0.0,88,0.00,CLR,,0.00,WeatherDisplay:10.37,2013-04-21 09:37:00,
2013-04-21 05:42:00,34.1,31.2,30.34,NNW,329,0.0,0.0,89,0.00,CLR,,0.00,WeatherDisplay:10.37,2013-04-21 09:42:00,
2013-04-21 05:47:00,33.9,31.3,30.34,NNW,329,0.0,0.0,90,0.00,CLR,,0.00,WeatherDisplay:10.37,2013-04-21 09:47:00,
2013-04-21 05:52:00,33.9,31.3,30.35,NNW,329,0.0,0.0,90,0.00,CLR,,0.00,WeatherDisplay:10.37,2013-04-21 09:52:00,
2013-04-21 05:57:00,33.8,31.2,30.35,NNW,329,0.0,0.0,90,0.00,CLR,,0.00,WeatherDisplay:10.37,2013-04-21 09:57:00,
2013-04-21 06:02:00,33.7,31.1,30.35,NNW,329,0.0,0.0,90,0.00,CLR,,0.00,WeatherDisplay:10.37,2013-04-21 10:02:00,
2013-04-21 06:07:00,33.6,31.0,30.35,NNW,329,0.0,0.0,90,0.00,CLR,,0.00,WeatherDisplay:10.37,2013-04-21 10:07:00,
2013-04-21 06:12:00,33.5,30.9,30.35,NNW,329,0.0,0.0,90,0.00,CLR,,0.00,WeatherDisplay:10.37,2013-04-21 10:12:00,
2013-04-21 06:17:00,33.4,30.8,30.35,NNW,329,0.0,0.0,90,0.00,CLR,,0.00,WeatherDisplay:10.37,2013-04-21 10:17:00,
2013-04-21 06:22:00,33.5,30.9,30.36,NNW,329,0.0,0.0,90,0.00,CLR,,0.00,WeatherDisplay:10.37,2013-04-21 10:22:00,
2013-04-21 06:27:00,33.4,30.5,30.36,NNW,329,0.0,0.0,89,0.00,CLR,,0.00,WeatherDisplay:10.37,2013-04-21 10:27:00,
2013-04-21 06:32:00,33.4,30.8,30.36,NNW,329,0.0,0.0,90,0.00,CLR,,0.00,WeatherDisplay:10.37,2013-04-21 10:32:00,
2013-04-21 06:37:00,33.5,30.9,30.37,NNW,329,0.0,0.0,90,0.00,CLR,,0.00,WeatherDisplay:10.37,2013-04-21 10:37:00,
2013-04-21 06:42:00,33.5,30.9,30.37,NNW,328,0.0,0.0,90,0.00,CLR,,0.00,WeatherDisplay:10.37,2013-04-21 10:42:00,
2013-04-21 06:47:00,33.5,30.9,30.37,NNW,329,0.0,0.0,90,0.00,CLR,,0.00,WeatherDisplay:10.37,2013-04-21 10:47:00,
2013-04-21 06:52:00,33.4,30.8,30.38,NNW,329,0.0,0.0,90,0.00,CLR,,0.00,WeatherDisplay:10.37,2013-04-21 10:52:00,
2013-04-21 06:57:00,33.4,31.1,30.38,NNW,329,0.0,0.0,91,0.00,CLR,,0.00,WeatherDisplay:10.37,2013-04-21 10:57:00,
2013-04-21 07:02:00,33.5,30.9,30.38,NNW,329,0.0,0.0,90,0.00,CLR,,0.00,WeatherDisplay:10.37,2013-04-21 11:02:00,
2013-04-21 07:07:00,33.5,30.9,30.38,NNW,329,0.0,0.0,90,0.00,CLR,,0.00,WeatherDisplay:10.37,2013-04-21 11:07:00,
2013-04-21 07:12:00,33.6,30.7,30.38,NNW,329,0.0,0.0,89,0.00,CLR,,0.00,WeatherDisplay:10.37,2013-04-21 11:12:00,
2013-04-21 07:17:00,33.8,31.2,30.38,NNW,329,0.0,0.0,90,0.00,CLR,,0.00,WeatherDisplay:10.37,2013-04-21 11:17:00,
2013-04-21 07:22:00,33.9,31.0,30.39,NNW,329,0.0,0.0,89,0.00,CLR,,0.00,WeatherDisplay:10.37,2013-04-21 11:22:00,
2013-04-21 07:27:00,34.0,31.1,30.39,NNW,329,0.0,0.0,89,0.00,CLR,,0.00,WeatherDisplay:10.37,2013-04-21 11:27:00,
2013-04-21 07:32:00,34.2,31.3,30.39,NNW,329,0.0,0.0,89,0.00,CLR,,0.00,WeatherDisplay:10.37,2013-04-21 11:32:00,
2013-04-21 07:37:00,34.4,31.8,30.40,NNW,329,0.1,1.1,90,0.00,CLR,,0.00,WeatherDisplay:10.37,2013-04-21 11:37:00,
2013-04-21 07:42:00,34.7,31.8,30.40,NNW,329,0.0,0.0,89,0.00,CLR,,0.00,WeatherDisplay:10.37,2013-04-21 11:42:00,
2013-04-21 07:47:00,35.1,31.6,30.40,NNW,329,0.0,0.0,87,0.00,CLR,,0.00,WeatherDisplay:10.37,2013-04-21 11:47:00,
2013-04-21 07:52:00,35.6,32.1,30.41,NNW,329,0.0,0.0,87,0.00,CLR,,0.00,WeatherDisplay:10.37,2013-04-21 11:52:00,
2013-04-21 07:57:00,36.1,31.7,30.41,NNW,329,0.0,0.0,84,0.00,CLR,,0.00,WeatherDisplay:10.37,2013-04-21 11:57:00,
2013-04-21 08:02:00,36.7,31.4,30.41,NNW,329,0.0,1.1,81,0.00,CLR,,0.00,WeatherDisplay:10.37,2013-04-21 12:02:00,
2013-04-21 08:07:00,37.0,32.3,30.41,NNW,329,0.0,0.0,83,0.00,CLR,,0.00,WeatherDisplay:10.37,2013-04-21 12:07:00,
2013-04-21 08:12:00,37.2,32.2,30.41,NNW,329,0.0,0.0,82,0.00,CLR,,0.00,WeatherDisplay:10.37,2013-04-21 12:12:00,
2013-04-21 08:17:00,37.5,33.1,30.42,NNW,329,0.0,0.0,84,0.00,CLR,,0.00,WeatherDisplay:10.37,2013-04-21 12:17:00,
2013-04-21 08:22:00,38.1,33.7,30.42,NNW,329,0.0,0.0,84,0.00,CLR,,0.00,WeatherDisplay:10.37,2013-04-21 12:22:00,
2013-04-21 08:27:00,38.9,35.1,30.42,NNW,329,0.0,0.0,86,0.00,CLR,,0.00,WeatherDisplay:10.37,2013-04-21 12:27:00,
2013-04-21 08:32:00,39.6,33.6,30.42,NNW,329,0.0,0.0,79,0.00,CLR,,0.00,WeatherDisplay:10.37,2013-04-21 12:32:00,
2013-04-21 08:37:00,40.1,34.1,30.42,NNW,329,0.4,2.3,79,0.00,CLR,,0.00,WeatherDisplay:10.37,2013-04-21 12:37:00,
2013-04-21 08:42:00,40.6,34.6,30.42,NNW,329,0.0,0.0,79,0.00,CLR,,0.00,WeatherDisplay:10.37,2013-04-21 12:42:00,
2013-04-21 08:47:00,41.3,34.3,30.42,NNW,329,0.0,0.0,76,0.00,CLR,,0.00,WeatherDisplay:10.37,2013-04-21 12:47:00,
2013-04-21 08:52:00,41.9,35.2,30.42,NNW,329,0.0,0.0,77,0.00,CLR,,0.00,WeatherDisplay:10.37,2013-04-21 12:52:00,
2013-04-21 08:57:00,42.7,33.9,30.42,North,8,1.8,4.9,71,0.00,CLR,,0.00,WeatherDisplay:10.37,2013-04-21 12:57:00,
2013-04-21 09:02:00,43.6,31.8,30.42,NNE,23,2.0,3.5,63,0.00,CLR,,0.00,WeatherDisplay:10.37,2013-04-21 13:02:00,
2013-04-21 09:07:00,45.1,30.8,30.42,NE,39,5.0,7.3,57,0.00,CLR,,0.00,WeatherDisplay:10.37,2013-04-21 13:07:00,
2013-04-21 09:12:00,46.7,31.4,30.42,North,10,2.7,4.6,55,0.00,CLR,,0.00,WeatherDisplay:10.37,2013-04-21 13:12:00,
2013-04-21 09:18:00,48.1,29.8,30.42,NE,56,5.7,6.9,49,0.00,CLR,,0.00,WeatherDisplay:10.37,2013-04-21 13:18:00,
2013-04-21 09:23:00,48.3,29.5,30.42,NNE,33,2.2,5.8,48,0.00,CLR,,0.00,WeatherDisplay:10.37,2013-04-21 13:23:00,
2013-04-21 09:28:00,48.2,28.4,30.42,NE,44,6.9,8.1,46,0.00,CLR,,0.00,WeatherDisplay:10.37,2013-04-21 13:28:00,
2013-04-21 09:33:00,48.1,28.3,30.42,NNE,28,7.7,12.7,46,0.00,CLR,,0.00,WeatherDisplay:10.37,2013-04-21 13:33:00,
2013-04-21 09:38:00,48.5,29.2,30.43,NNE,26,12.6,13.8,47,0.00,CLR,,0.00,WeatherDisplay:10.37,2013-04-21 13:38:00,
2013-04-21 09:43:00,49.5,29.6,30.43,NE,35,7.4,11.5,46,0.00,CLR,,0.00,WeatherDisplay:10.37,2013-04-21 13:43:00,
2013-04-21 09:48:00,49.7,28.1,30.42,North,355,8.5,9.2,43,0.00,CLR,,0.00,WeatherDisplay:10.37,2013-04-21 13:48:00,
2013-04-21 09:53:00,49.3,29.4,30.43,North,6,5.3,8.5,46,0.00,CLR,,0.00,WeatherDisplay:10.37,2013-04-21 13:53:00,
2013-04-21 09:58:00,49.5,27.9,30.43,ENE,64,7.1,12.7,43,0.00,CLR,,0.00,WeatherDisplay:10.37,2013-04-21 13:58:00,
2013-04-21 10:03:00,49.5,29.0,30.43,North,6,9.6,12.7,45,0.00,CLR,,0.00,WeatherDisplay:10.37,2013-04-21 14:03:00,
2013-04-21 10:08:00,49.4,29.5,30.43,ENE,67,5.9,9.2,46,0.00,CLR,,0.00,WeatherDisplay:10.37,2013-04-21 14:08:00,
2013-04-21 10:13:00,49.5,27.9,30.44,NE,40,7.2,16.1,43,0.00,CLR,,0.00,WeatherDisplay:10.37,2013-04-21 14:13:00,
2013-04-21 10:18:00,50.0,28.9,30.44,NE,50,3.9,6.9,44,0.00,CLR,,0.00,WeatherDisplay:10.37,2013-04-21 14:18:00,
2013-04-21 10:23:00,50.0,29.5,30.44,NNE,29,7.8,9.8,45,0.00,CLR,,0.00,WeatherDisplay:10.37,2013-04-21 14:23:00,
2013-04-21 10:28:00,50.0,28.9,30.44,North,360,8.7,9.2,44,0.00,CLR,,0.00,WeatherDisplay:10.37,2013-04-21 14:28:00,
2013-04-21 10:33:00,50.2,29.1,30.44,NE,39,11.0,13.8,44,0.00,CLR,,0.00,WeatherDisplay:10.37,2013-04-21 14:33:00,
2013-04-21 10:38:00,49.9,28.3,30.44,ENE,60,8.6,11.5,43,0.00,CLR,,0.00,WeatherDisplay:10.37,2013-04-21 14:38:00,
2013-04-21 10:43:00,49.7,29.7,30.44,North,355,6.3,8.1,46,0.00,CLR,,0.00,WeatherDisplay:10.37,2013-04-21 14:43:00,
2013-04-21 10:48:00,49.9,28.8,30.44,North,355,6.5,8.1,44,0.00,CLR,,0.00,WeatherDisplay:10.37,2013-04-21 14:48:00,
2013-04-21 10:53:00,50.2,29.7,30.44,North,355,5.1,11.0,45,0.00,CLR,,0.00,WeatherDisplay:10.37,2013-04-21 14:53:00,
2013-04-21 10:58:00,50.4,28.7,30.44,North,355,6.0,9.2,43,0.00,CLR,,0.00,WeatherDisplay:10.37,2013-04-21 14:58:00,
2013-04-21 11:03:00,50.5,28.8,30.44,NE,54,8.8,11.5,43,0.00,CLR,,0.00,WeatherDisplay:10.37,2013-04-21 15:03:00,
2013-04-21 11:08:00,51.4,31.8,30.44,NE,47,5.3,8.1,47,0.00,CLR,,0.00,WeatherDisplay:10.37,2013-04-21 15:08:00,
2013-04-21 11:13:00,51.8,30.0,30.44,North,355,6.3,9.2,43,0.00,CLR,,0.00,WeatherDisplay:10.37,2013-04-21 15:13:00,
2013-04-21 11:18:00,52.0,29.0,30.44,North,355,4.1,11.5,41,0.00,CLR,,0.00,WeatherDisplay:10.37,2013-04-21 15:18:00,
2013-04-21 11:23:00,51.4,29.1,30.44,North,355,13.7,17.3,42,0.00,CLR,,0.00,WeatherDisplay:10.37,2013-04-21 15:23:00,
2013-04-21 11:28:00,51.2,28.3,30.44,NE,41,8.0,9.2,41,0.00,CLR,,0.00,WeatherDisplay:10.37,2013-04-21 15:28:00,
2013-04-21 11:33:00,52.0,30.2,30.43,North,355,5.7,6.9,43,0.00,CLR,,0.00,WeatherDisplay:10.37,2013-04-21 15:33:00,
2013-04-21 11:38:00,51.8,31.1,30.43,North,355,4.4,4.6,45,0.00,CLR,,0.00,WeatherDisplay:10.37,2013-04-21 15:38:00,
2013-04-21 11:43:00,51.5,27.9,30.43,North,355,4.2,6.9,40,0.00,CLR,,0.00,WeatherDisplay:10.37,2013-04-21 15:43:00,
2013-04-21 11:48:00,51.7,30.5,30.44,North,355,2.7,3.5,44,0.00,CLR,,0.00,WeatherDisplay:10.37,2013-04-21 15:48:00,
2013-04-21 11:53:00,52.4,30.5,30.43,North,355,6.0,6.9,43,0.00,CLR,,0.00,WeatherDisplay:10.37,2013-04-21 15:53:00,
2013-04-21 11:58:00,52.3,31.0,30.43,North,355,6.5,8.1,44,0.00,CLR,,0.00,WeatherDisplay:10.37,2013-04-21 15:58:00,
2013-04-21 12:03:00,52.6,32.4,30.43,ENE,73,5.4,6.9,46,0.00,CLR,,0.00,WeatherDisplay:10.37,2013-04-21 16:03:00,
2013-04-21 12:08:00,53.8,37.5,30.43,ENE,58,7.0,9.2,54,0.00,CLR,,0.00,WeatherDisplay:10.37,2013-04-21 16:08:00,
2013-04-21 12:13:00,53.6,29.2,30.42,NE,48,4.1,6.9,39,0.00,CLR,,0.00,WeatherDisplay:10.37,2013-04-21 16:13:00,
2013-04-21 12:18:00,54.1,30.9,30.43,NE,48,4.8,5.8,41,0.00,CLR,,0.00,WeatherDisplay:10.37,2013-04-21 16:18:00,
2013-04-21 12:23:00,54.2,31.0,30.42,ENE,58,6.4,9.8,41,0.00,CLR,,0.00,WeatherDisplay:10.37,2013-04-21 16:23:00,
2013-04-21 12:28:00,54.8,29.7,30.42,NE,51,10.8,11.5,38,0.00,CLR,,0.00,WeatherDisplay:10.37,2013-04-21 16:28:00,
2013-04-21 12:33:00,54.9,30.4,30.42,ENE,61,0.8,2.3,39,0.00,CLR,,0.00,WeatherDisplay:10.37,2013-04-21 16:33:00,
2013-04-21 12:38:00,55.8,34.2,30.41,NE,39,8.3,12.7,44,0.00,CLR,,0.00,WeatherDisplay:10.37,2013-04-21 16:38:00,
2013-04-21 12:43:00,56.8,32.7,30.41,North,355,12.8,16.1,40,0.00,CLR,,0.00,WeatherDisplay:10.37,2013-04-21 16:43:00,
2013-04-21 12:48:00,56.1,30.8,30.40,NNE,32,3.1,3.5,38,0.00,CLR,,0.00,WeatherDisplay:10.37,2013-04-21 16:48:00,
2013-04-21 12:53:00,55.0,29.8,30.40,West,281,1.1,3.5,38,0.00,CLR,,0.00,WeatherDisplay:10.37,2013-04-21 16:53:00,
2013-04-21 12:58:00,55.9,35.9,30.40,North,355,2.1,3.7,47,0.00,CLR,,0.00,WeatherDisplay:10.37,2013-04-21 16:58:00,
2013-04-21 13:03:00,57.1,31.0,30.40,North,355,11.0,15.0,37,0.00,CLR,,0.00,WeatherDisplay:10.37,2013-04-21 17:03:00,
2013-04-21 13:08:00,57.7,32.9,30.39,ENE,62,8.2,11.0,39,0.00,CLR,,0.00,WeatherDisplay:10.37,2013-04-21 17:08:00,
2013-04-21 13:13:00,57.7,34.1,30.39,NE,56,4.1,6.1,41,0.00,CLR,,0.00,WeatherDisplay:10.37,2013-04-21 17:13:00,
2013-04-21 13:18:00,57.6,29.4,30.39,West,264,2.1,11.5,34,0.00,CLR,,0.00,WeatherDisplay:10.37,2013-04-21 17:18:00,
2013-04-21 13:23:00,56.4,29.7,30.40,NNE,28,3.9,8.1,36,0.00,CLR,,0.00,WeatherDisplay:10.37,2013-04-21 17:23:00,
2013-04-21 13:28:00,56.2,31.5,30.39,North,355,5.3,8.5,39,0.00,CLR,,0.00,WeatherDisplay:10.37,2013-04-21 17:28:00,
2013-04-21 13:33:00,57.1,32.4,30.38,North,355,1.6,2.4,39,0.00,CLR,,0.00,WeatherDisplay:10.37,2013-04-21 17:33:00,
2013-04-21 13:38:00,56.4,27.6,30.38,NNW,328,5.8,11.5,33,0.00,CLR,,0.00,WeatherDisplay:10.37,2013-04-21 17:38:00,
2013-04-21 13:43:00,56.9,30.9,30.38,NE,44,11.7,11.7,37,0.00,CLR,,0.00,WeatherDisplay:10.37,2013-04-21 17:43:00,
2013-04-21 13:48:00,56.6,30.6,30.38,North,355,5.1,5.1,37,0.00,CLR,,0.00,WeatherDisplay:10.37,2013-04-21 17:48:00,
2013-04-21 13:53:00,56.7,30.0,30.38,West,263,2.6,3.7,36,0.00,CLR,,0.00,WeatherDisplay:10.37,2013-04-21 17:53:00,
2013-04-21 13:59:00,58.0,30.5,30.38,NW,326,4.9,4.9,35,0.00,CLR,,0.00,WeatherDisplay:10.37,2013-04-21 17:59:00,
2013-04-21 14:04:00,57.7,31.6,30.38,North,355,5.9,5.9,37,0.00,CLR,,0.00,WeatherDisplay:10.37,2013-04-21 18:04:00,
2013-04-21 14:09:00,57.5,32.7,30.39,NE,39,11.1,15.0,39,0.00,CLR,,0.00,WeatherDisplay:10.37,2013-04-21 18:09:00,
2013-04-21 14:14:00,57.0,28.9,30.39,North,360,3.2,5.8,34,0.00,CLR,,0.00,WeatherDisplay:10.37,2013-04-21 18:14:00,
2013-04-21 14:19:00,57.1,29.7,30.39,East,90,2.0,3.5,35,0.00,CLR,,0.00,WeatherDisplay:10.37,2013-04-21 18:19:00,
2013-04-21 14:24:00,58.4,36.0,30.39,NNW,328,0.0,0.0,43,0.00,CLR,,0.00,WeatherDisplay:10.37,2013-04-21 18:24:00,
2013-04-21 14:29:00,58.6,29.6,30.39,NE,52,3.3,4.6,33,0.00,CLR,,0.00,WeatherDisplay:10.37,2013-04-21 18:29:00,
2013-04-21 14:34:00,58.2,28.5,30.38,NNW,340,0.2,3.5,32,0.00,CLR,,0.00,WeatherDisplay:10.37,2013-04-21 18:34:00,
2013-04-21 14:39:00,58.4,29.4,30.38,NNE,30,5.0,8.1,33,0.00,CLR,,0.00,WeatherDisplay:10.37,2013-04-21 18:39:00,
2013-04-21 14:44:00,59.6,29.7,30.38,NNE,29,4.6,5.8,32,0.00,CLR,,0.00,WeatherDisplay:10.37,2013-04-21 18:44:00,
2013-04-21 14:49:00,60.2,33.8,30.36,NE,44,14.1,17.3,37,0.00,CLR,,0.00,WeatherDisplay:10.37,2013-04-21 18:49:00,
2013-04-21 14:54:00,60.0,32.9,30.36,NE,39,8.2,12.7,36,0.00,CLR,,0.00,WeatherDisplay:10.37,2013-04-21 18:54:00,
2013-04-21 14:59:00,59.9,32.2,30.36,ENE,78,7.9,7.9,35,0.00,CLR,,0.00,WeatherDisplay:10.37,2013-04-21 18:59:00,
2013-04-21 15:04:00,58.7,29.6,30.37,WNW,298,6.7,16.1,33,0.00,CLR,,0.00,WeatherDisplay:10.37,2013-04-21 19:04:00,
2013-04-21 15:09:00,58.2,31.3,30.36,WNW,301,10.5,11.5,36,0.00,CLR,,0.00,WeatherDisplay:10.37,2013-04-21 19:09:00,
2013-04-21 15:14:00,57.9,31.1,30.37,WNW,301,3.6,4.9,36,0.00,CLR,,0.00,WeatherDisplay:10.37,2013-04-21 19:14:00,
2013-04-21 15:19:00,58.9,30.6,30.36,SSW,212,6.9,8.1,34,0.00,CLR,,0.00,WeatherDisplay:10.37,2013-04-21 19:19:00,
2013-04-21 15:24:00,58.1,29.8,30.36,WNW,296,3.9,9.8,34,0.00,CLR,,0.00,WeatherDisplay:10.37,2013-04-21 19:24:00,
2013-04-21 15:29:00,58.4,31.5,30.36,NW,322,10.3,15.0,36,0.00,CLR,,0.00,WeatherDisplay:10.37,2013-04-21 19:29:00,
2013-04-21 15:34:00,58.6,31.0,30.36,NNW,342,0.0,4.6,35,0.00,CLR,,0.00,WeatherDisplay:10.37,2013-04-21 19:34:00,
2013-04-21 15:39:00,59.6,31.2,30.35,North,355,13.2,15.0,34,0.00,CLR,,0.00,WeatherDisplay:10.37,2013-04-21 19:39:00,
2013-04-21 15:44:00,60.3,34.6,30.36,North,355,4.4,8.1,38,0.00,CLR,,0.00,WeatherDisplay:10.37,2013-04-21 19:44:00,
2013-04-21 15:49:00,60.3,31.8,30.35,NNW,346,4.8,5.8,34,0.00,CLR,,0.00,WeatherDisplay:10.37,2013-04-21 19:49:00,
2013-04-21 15:54:00,60.0,32.2,30.35,NW,312,1.7,4.6,35,0.00,CLR,,0.00,WeatherDisplay:10.37,2013-04-21 19:54:00,
2013-04-21 15:59:00,60.6,33.5,30.35,North,355,4.8,6.9,36,0.00,CLR,,0.00,WeatherDisplay:10.37,2013-04-21 19:59:00,
2013-04-21 16:04:00,60.8,32.2,30.34,East,82,2.8,3.5,34,0.00,CLR,,0.00,WeatherDisplay:10.37,2013-04-21 20:04:00,
2013-04-21 16:09:00,60.8,32.2,30.34,SW,222,1.8,3.5,34,0.00,CLR,,0.00,WeatherDisplay:10.37,2013-04-21 20:09:00,
2013-04-21 16:14:00,60.2,31.7,30.34,NNE,31,5.0,8.1,34,0.00,CLR,,0.00,WeatherDisplay:10.37,2013-04-21 20:14:00,
2013-04-21 16:19:00,60.7,36.2,30.33,NNE,28,3.7,6.1,40,0.00,CLR,,0.00,WeatherDisplay:10.37,2013-04-21 20:19:00,
2013-04-21 16:24:00,60.3,32.5,30.33,NW,320,5.9,6.1,35,0.00,CLR,,0.00,WeatherDisplay:10.37,2013-04-21 20:24:00,
2013-04-21 16:29:00,60.3,31.0,30.33,North,355,1.6,4.9,33,0.00,CLR,,0.00,WeatherDisplay:10.37,2013-04-21 20:29:00,
2013-04-21 16:34:00,60.9,33.7,30.33,NNW,327,5.4,7.3,36,0.00,CLR,,0.00,WeatherDisplay:10.37,2013-04-21 20:34:00,
2013-04-21 16:39:00,60.5,32.0,30.33,North,355,8.7,16.1,34,0.00,CLR,,0.00,WeatherDisplay:10.37,2013-04-21 20:39:00,
2013-04-21 16:44:00,60.2,32.4,30.33,North,355,8.1,9.2,35,0.00,CLR,,0.00,WeatherDisplay:10.37,2013-04-21 20:44:00,
2013-04-21 16:49:00,60.2,32.4,30.33,North,355,1.6,5.8,35,0.00,CLR,,0.00,WeatherDisplay:10.37,2013-04-21 20:49:00,
2013-04-21 16:54:00,60.7,32.1,30.33,NE,47,2.4,6.1,34,0.00,CLR,,0.00,WeatherDisplay:10.37,2013-04-21 20:54:00,
2013-04-21 16:59:00,60.4,34.7,30.33,North,360,3.6,6.1,38,0.00,CLR,,0.00,WeatherDisplay:10.37,2013-04-21 20:59:00,
2013-04-21 17:04:00,60.5,34.7,30.32,North,355,5.5,6.1,38,0.00,CLR,,0.00,WeatherDisplay:10.37,2013-04-21 21:04:00,
2013-04-21 17:09:00,59.4,33.8,30.32,NE,47,1.7,7.3,38,0.00,CLR,,0.00,WeatherDisplay:10.37,2013-04-21 21:09:00,
2013-04-21 17:14:00,59.9,32.2,30.32,North,355,0.9,4.6,35,0.00,CLR,,0.00,WeatherDisplay:10.37,2013-04-21 21:14:00,
2013-04-21 17:19:00,60.1,33.7,30.33,NNE,31,9.6,12.7,37,0.00,CLR,,0.00,WeatherDisplay:10.37,2013-04-21 21:19:00,
2013-04-21 17:24:00,60.3,35.9,30.33,NE,40,4.2,5.8,40,0.00,CLR,,0.00,WeatherDisplay:10.37,2013-04-21 21:24:00,
2013-04-21 17:29:00,60.8,36.3,30.33,WSW,243,0.9,3.7,40,0.00,CLR,,0.00,WeatherDisplay:10.37,2013-04-21 21:29:00,
2013-04-21 17:34:00,59.8,31.3,30.33,NE,55,1.8,3.5,34,0.00,CLR,,0.00,WeatherDisplay:10.37,2013-04-21 21:34:00,
2013-04-21 17:39:00,59.5,32.5,30.32,ENE,66,4.6,11.5,36,0.00,CLR,,0.00,WeatherDisplay:10.37,2013-04-21 21:39:00,
2013-04-21 17:44:00,59.1,31.4,30.32,ENE,64,1.8,3.7,35,0.00,CLR,,0.00,WeatherDisplay:10.37,2013-04-21 21:44:00,
2013-04-21 17:49:00,58.5,32.3,30.33,NW,309,0.9,3.5,37,0.00,CLR,,0.00,WeatherDisplay:10.37,2013-04-21 21:49:00,
2013-04-21 17:54:00,58.2,32.0,30.33,NE,36,0.3,1.1,37,0.00,CLR,,0.00,WeatherDisplay:10.37,2013-04-21 21:54:00,
2013-04-21 17:59:00,58.0,33.8,30.33,WNW,299,6.9,15.0,40,0.00,CLR,,0.00,WeatherDisplay:10.37,2013-04-21 21:59:00,
2013-04-21 18:04:00,56.9,32.2,30.33,WNW,292,2.8,3.7,39,0.00,CLR,,0.00,WeatherDisplay:10.37,2013-04-21 22:04:00,
2013-04-21 18:09:00,56.4,33.0,30.33,NNE,28,0.1,3.5,41,0.00,CLR,,0.00,WeatherDisplay:10.37,2013-04-21 22:09:00,
2013-04-21 18:14:00,56.1,32.7,30.33,NW,313,0.0,1.1,41,0.00,CLR,,0.00,WeatherDisplay:10.37,2013-04-21 22:14:00,
2013-04-21 18:19:00,56.0,33.2,30.33,NE,50,1.0,2.3,42,0.00,CLR,,0.00,WeatherDisplay:10.37,2013-04-21 22:19:00,
2013-04-21 18:24:00,55.6,32.2,30.33,NW,316,3.3,5.8,41,0.00,CLR,,0.00,WeatherDisplay:10.37,2013-04-21 22:24:00,
2013-04-21 18:29:00,55.6,34.0,30.33,NW,316,0.0,0.0,44,0.00,CLR,,0.00,WeatherDisplay:10.37,2013-04-21 22:29:00,
2013-04-21 18:34:00,55.2,33.6,30.33,NW,316,1.1,2.3,44,0.00,CLR,,0.00,WeatherDisplay:10.37,2013-04-21 22:34:00,
2013-04-21 18:39:00,54.8,35.5,30.33,NW,316,0.0,1.1,48,0.00,CLR,,0.00,WeatherDisplay:10.37,2013-04-21 22:39:00,
2013-04-21 18:44:00,54.2,34.4,30.33,NNE,17,0.0,1.1,47,0.00,CLR,,0.00,WeatherDisplay:10.37,2013-04-21 22:44:00,
2013-04-21 18:49:00,53.9,34.6,30.34,NNE,17,0.0,0.0,48,0.00,CLR,,0.00,WeatherDisplay:10.37,2013-04-21 22:49:00,
2013-04-21 18:54:00,53.6,34.9,30.34,NNE,17,0.2,0.0,49,0.00,CLR,,0.00,WeatherDisplay:10.37,2013-04-21 22:54:00,
2013-04-21 18:59:00,53.4,33.7,30.34,NNE,27,0.0,0.0,47,0.00,CLR,,0.00,WeatherDisplay:10.37,2013-04-21 22:59:00,
2013-04-21 19:04:00,53.1,33.4,30.34,NNE,27,0.0,0.0,47,0.00,CLR,,0.00,WeatherDisplay:10.37,2013-04-21 23:04:00,
2013-04-21 19:09:00,52.9,33.2,30.34,NW,313,1.8,2.3,47,0.00,CLR,,0.00,WeatherDisplay:10.37,2013-04-21 23:09:00,
2013-04-21 19:14:00,52.9,33.7,30.34,NNE,32,0.0,2.3,48,0.00,CLR,,0.00,WeatherDisplay:10.37,2013-04-21 23:14:00,
2013-04-21 19:19:00,52.8,34.7,30.35,NNE,12,1.8,3.5,50,0.00,CLR,,0.00,WeatherDisplay:10.37,2013-04-21 23:19:00,
2013-04-21 19:24:00,52.7,34.6,30.35,North,360,6.0,7.3,50,0.00,CLR,,0.00,WeatherDisplay:10.37,2013-04-21 23:24:00,
2013-04-21 19:30:00,52.6,35.5,30.35,NNE,16,1.3,3.5,52,0.00,CLR,,0.00,WeatherDisplay:10.37,2013-04-21 23:30:00,
2013-04-21 19:35:00,52.3,34.7,30.35,North,11,1.9,6.9,51,0.00,CLR,,0.00,WeatherDisplay:10.37,2013-04-21 23:35:00,
2013-04-21 19:40:00,52.2,35.1,30.35,NE,35,1.5,4.6,52,0.00,CLR,,0.00,WeatherDisplay:10.37,2013-04-21 23:40:00,
2013-04-21 19:45:00,51.9,34.8,30.35,NNE,31,2.6,6.9,52,0.00,CLR,,0.00,WeatherDisplay:10.37,2013-04-21 23:45:00,
2013-04-21 19:50:00,51.9,34.3,30.35,NNW,340,2.6,3.5,51,0.00,CLR,,0.00,WeatherDisplay:10.37,2013-04-21 23:50:00,
2013-04-21 19:55:00,51.5,34.4,30.35,NNE,23,2.3,3.5,52,0.00,CLR,,0.00,WeatherDisplay:10.37,2013-04-21 23:55:00,
2013-04-21 20:00:00,51.1,35.0,30.35,ENE,71,3.1,5.8,54,0.00,CLR,,0.00,WeatherDisplay:10.37,2013-04-22 00:00:00,
2013-04-21 20:05:00,50.8,34.7,30.36,NW,322,0.2,1.1,54,0.00,CLR,,0.00,WeatherDisplay:10.37,2013-04-22 00:05:00,
2013-04-21 20:10:00,50.5,34.9,30.36,NW,321,1.3,3.5,55,0.00,CLR,,0.00,WeatherDisplay:10.37,2013-04-22 00:10:00,
2013-04-21 20:15:00,50.1,35.4,30.36,NE,51,0.7,2.3,57,0.00,CLR,,0.00,WeatherDisplay:10.37,2013-04-22 00:15:00,
2013-04-21 20:20:00,49.3,36.8,30.38,ENE,76,0.2,3.7,62,0.00,CLR,,0.00,WeatherDisplay:10.37,2013-04-22 00:20:00,
2013-04-21 20:25:00,48.9,36.9,30.38,North,10,0.0,0.0,63,0.00,CLR,,0.00,WeatherDisplay:10.37,2013-04-22 00:25:00,
2013-04-21 20:30:00,48.3,37.1,30.38,NNW,328,0.0,0.0,65,0.00,CLR,,0.00,WeatherDisplay:10.37,2013-04-22 00:30:00,
2013-04-21 20:35:00,47.7,37.3,30.39,NNW,328,0.1,0.0,67,0.00,CLR,,0.00,WeatherDisplay:10.37,2013-04-22 00:35:00,
2013-04-21 20:40:00,47.2,36.8,30.39,NNW,328,0.0,0.0,67,0.00,CLR,,0.00,WeatherDisplay:10.37,2013-04-22 00:40:00,
2013-04-21 20:45:00,46.8,37.2,30.39,NNW,328,0.4,1.1,69,0.00,CLR,,0.00,WeatherDisplay:10.37,2013-04-22 00:45:00,
2013-04-21 20:50:00,46.5,36.5,30.40,NNW,328,0.0,0.0,68,0.00,CLR,,0.00,WeatherDisplay:10.37,2013-04-22 00:50:00,
2013-04-21 20:55:00,46.3,36.7,30.40,NNW,328,0.0,0.0,69,0.00,CLR,,0.00,WeatherDisplay:10.37,2013-04-22 00:55:00,
2013-04-21 21:00:00,45.9,36.7,30.40,NNW,328,0.0,0.0,70,0.00,CLR,,0.00,WeatherDisplay:10.37,2013-04-22 01:00:00,
2013-04-21 21:05:00,45.7,36.5,30.40,NNW,328,0.0,0.0,70,0.00,CLR,,0.00,WeatherDisplay:10.37,2013-04-22 01:05:00,
2013-04-21 21:10:00,45.5,37.3,30.40,NNW,328,0.0,1.1,73,0.00,CLR,,0.00,WeatherDisplay:10.37,2013-04-22 01:10:00,
2013-04-21 21:15:00,45.4,36.9,30.40,NNW,328,0.0,0.0,72,0.00,CLR,,0.00,WeatherDisplay:10.37,2013-04-22 01:15:00,
2013-04-21 21:20:00,45.2,36.7,30.40,NNW,328,0.0,0.0,72,0.00,CLR,,0.00,WeatherDisplay:10.37,2013-04-22 01:20:00,
2013-04-21 21:25:00,45.1,36.6,30.40,NNW,328,0.0,0.0,72,0.00,CLR,,0.00,WeatherDisplay:10.37,2013-04-22 01:25:00,
2013-04-21 21:30:00,44.8,36.7,30.40,NNW,328,0.0,0.0,73,0.00,CLR,,0.00,WeatherDisplay:10.37,2013-04-22 01:30:00,
2013-04-21 21:35:00,44.6,36.8,30.41,NNW,328,0.0,0.0,74,0.00,CLR,,0.00,WeatherDisplay:10.37,2013-04-22 01:35:00,
2013-04-21 21:40:00,44.5,36.7,30.41,NNW,328,0.0,0.0,74,0.00,CLR,,0.00,WeatherDisplay:10.37,2013-04-22 01:40:00,
2013-04-21 21:45:00,44.5,37.1,30.41,NNW,328,0.9,1.2,75,0.00,CLR,,0.00,WeatherDisplay:10.37,2013-04-22 01:45:00,
2013-04-21 21:50:00,44.5,37.4,30.42,NNW,328,0.0,0.0,76,0.00,CLR,,0.00,WeatherDisplay:10.37,2013-04-22 01:50:00,
2013-04-21 21:55:00,44.4,37.3,30.42,NNW,328,0.0,1.1,76,0.00,CLR,,0.00,WeatherDisplay:10.37,2013-04-22 01:55:00,
2013-04-21 22:00:00,44.3,36.9,30.42,NNW,328,0.2,2.4,75,0.00,CLR,,0.00,WeatherDisplay:10.37,2013-04-22 02:00:00,
2013-04-21 22:05:00,44.3,37.2,30.42,WSW,237,0.0,0.0,76,0.00,CLR,,0.00,WeatherDisplay:10.37,2013-04-22 02:05:00,
2013-04-21 22:10:00,44.3,37.5,30.42,SW,236,0.0,0.0,77,0.00,CLR,,0.00,WeatherDisplay:10.37,2013-04-22 02:10:00,
2013-04-21 22:15:00,44.3,37.5,30.42,SW,225,1.0,3.5,77,0.00,CLR,,0.00,WeatherDisplay:10.37,2013-04-22 02:15:00,
2013-04-21 22:20:00,44.2,37.4,30.42,SW,226,0.0,0.0,77,0.00,CLR,,0.00,WeatherDisplay:10.37,2013-04-22 02:20:00,
2013-04-21 22:25:00,44.1,37.7,30.42,SW,226,0.0,0.0,78,0.00,CLR,,0.00,WeatherDisplay:10.37,2013-04-22 02:25:00,
2013-04-21 22:30:00,43.9,37.5,30.42,SW,226,0.0,0.0,78,0.00,CLR,,0.00,WeatherDisplay:10.37,2013-04-22 02:30:00,
2013-04-21 22:35:00,43.9,37.8,30.42,SW,226,0.0,0.0,79,0.00,CLR,,0.00,WeatherDisplay:10.37,2013-04-22 02:35:00,
2013-04-21 22:40:00,43.9,37.5,30.42,SW,225,0.0,0.0,78,0.00,CLR,,0.00,WeatherDisplay:10.37,2013-04-22 02:40:00,
2013-04-21 22:45:00,43.8,37.7,30.42,SW,226,0.0,0.0,79,0.00,CLR,,0.00,WeatherDisplay:10.37,2013-04-22 02:45:00,
2013-04-21 22:50:00,43.7,37.9,30.41,SW,225,0.0,0.0,80,0.00,CLR,,0.00,WeatherDisplay:10.37,2013-04-22 02:50:00,
2013-04-21 22:55:00,43.7,37.6,30.41,SW,226,1.7,3.5,79,0.00,CLR,,0.00,WeatherDisplay:10.37,2013-04-22 02:55:00,
2013-04-21 23:00:00,43.6,37.8,30.41,SW,226,0.0,1.1,80,0.00,CLR,,0.00,WeatherDisplay:10.37,2013-04-22 03:00:00,
2013-04-21 23:05:00,43.5,38.1,30.41,SW,225,0.0,0.0,81,0.00,CLR,,0.00,WeatherDisplay:10.37,2013-04-22 03:05:00,
2013-04-21 23:10:00,43.4,37.6,30.41,SW,226,0.2,1.1,80,0.00,CLR,,0.00,WeatherDisplay:10.37,2013-04-22 03:10:00,
2013-04-21 23:15:00,43.4,38.0,30.41,SW,226,0.0,0.0,81,0.00,CLR,,0.00,WeatherDisplay:10.37,2013-04-22 03:15:00,
2013-04-21 23:20:00,43.5,38.4,30.41,SW,226,0.0,0.0,82,0.00,CLR,,0.00,WeatherDisplay:10.37,2013-04-22 03:20:00,
2013-04-21 23:25:00,43.5,38.1,30.41,West,275,2.1,2.4,81,0.00,CLR,,0.00,WeatherDisplay:10.37,2013-04-22 03:25:00,
2013-04-21 23:30:00,43.6,37.8,30.41,West,275,0.1,0.0,80,0.00,CLR,,0.00,WeatherDisplay:10.37,2013-04-22 03:30:00,
2013-04-21 23:35:00,43.6,37.8,30.41,West,275,0.4,1.1,80,0.00,CLR,,0.00,WeatherDisplay:10.37,2013-04-22 03:35:00,
2013-04-21 23:40:00,43.4,38.0,30.41,West,275,0.1,1.2,81,0.00,CLR,,0.00,WeatherDisplay:10.37,2013-04-22 03:40:00,
2013-04-21 23:45:00,43.3,37.9,30.41,West,275,0.0,0.0,81,0.00,CLR,,0.00,WeatherDisplay:10.37,2013-04-22 03:45:00,
2013-04-21 23:50:00,43.3,38.2,30.41,West,275,0.0,0.0,82,0.00,CLR,,0.00,WeatherDisplay:10.37,2013-04-22 03:50:00,
2013-04-21 23:55:00,43.1,38.0,30.41,West,275,0.0,0.0,82,0.00,CLR,,0.00,WeatherDisplay:10.37,2013-04-22 03:55:00,